User: anonymous   Login
Location: Mentone
(34.5413°N, 85.5351°W)
Time: 21:13:53
(UTC-05:00)
Language:

ERBS - Orbit

View from above orbital plane
View from above orbital plane
View from above satellite
View from above satellite

Ground track
Ground track

The orbit data is extracted from the following two-line orbital elements,

1 15354U 84108B   15239.00550124  .00004896  00000-0  14415-3 0  9991
2 15354 057.0107 088.6044 0008470 309.8793 050.1513 15.36855223696442
Epoch (UTC): 27 August 2015 00:07:55
Eccentricity: 0.0008470
inclination: 57.0107°
perigee height: 449 km
apogee height: 461 km
right ascension of ascending node: 88.6044°
argument of perigee: 309.8793°
revolutions per day: 15.36855223
mean anomaly at epoch: 50.1513°
orbit number at epoch: 69644

The dashed part of the orbit path shows where the satellite is in the earth's shadow,  

DLR